,,,PA_Meas_PMT16A,,PR_Meas_QMR101_102,,RH_Meas_QMH101,,SR_Meas_QMS101,,TA_Meas_QMH101,,GenWind,,GenWind,
date,time,status,PA,status,PR,status,RH,status,SR,status,TA,status,DirAvg,status,SpdAvg,
2009-10-06, 00:00:04,VALID,1000.23,VALID,0,VALID,90.4034,VALID,0,VALID,23.3908,VALID,91,VALID,0.862891,
2009-10-06, 00:01:04,VALID,1000.21,VALID,0,VALID,90.2203,VALID,0,VALID,23.4475,VALID,91,VALID,0.614062,
2009-10-06, 00:02:04,VALID,1000.21,VALID,0,VALID,89.9074,VALID,0,VALID,23.5079,VALID,95,VALID,0.723437,
2009-10-06, 00:03:04,VALID,1000.2,VALID,0,VALID,89.3734,VALID,0,VALID,23.5256,VALID,102,VALID,0.505469,
2009-10-06, 00:04:04,VALID,1000.21,VALID,0,VALID,89.4115,VALID,0,VALID,23.5664,VALID,102,VALID,0.537891,
2009-10-06, 00:05:04,VALID,1000.21,VALID,0,VALID,89.0606,VALID,0,VALID,23.5451,VALID,102,VALID,0.0605469,
2009-10-06, 00:06:04,VALID,1000.21,VALID,0,VALID,88.9614,VALID,0,VALID,23.5646,VALID,102,VALID,0.0105469,
2009-10-06, 00:07:04,VALID,1000.18,VALID,0,VALID,88.9385,VALID,0,VALID,23.5256,VALID,102,VALID,0.015625,
2009-10-06, 00:08:04,VALID,1000.19,VALID,0,VALID,88.9309,VALID,0,VALID,23.5061,VALID,102,VALID,0,
2009-10-06, 00:09:04,VALID,1000.16,VALID,0,VALID,89.114,VALID,0,VALID,23.4866,VALID,102,VALID,0,
2009-10-06, 00:10:04,VALID,1000.15,VALID,0,VALID,89.2894,VALID,0,VALID,23.4671,VALID,102,VALID,0.390234,
2009-10-06, 00:11:04,VALID,1000.16,VALID,0,VALID,89.5031,VALID,0,VALID,23.5079,VALID,102,VALID,0.476563,
2009-10-06, 00:12:04,VALID,1000.21,VALID,0,VALID,89.5717,VALID,0,VALID,23.5061,VALID,102,VALID,0.512109,
2009-10-06, 00:13:04,VALID,1000.2,VALID,0,VALID,89.6786,VALID,0,VALID,23.5061,VALID,102,VALID,0.276563,
2009-10-06, 00:14:04,VALID,1000.2,VALID,0,VALID,89.6328,VALID,0,VALID,23.4866,VALID,102,VALID,0.136328,
2009-10-06, 00:15:04,VALID,1000.23,VALID,0,VALID,89.7091,VALID,0,VALID,23.4884,VALID,102,VALID,0.272266,
2009-10-06, 00:16:04,VALID,1000.23,VALID,0,VALID,89.9227,VALID,0,VALID,23.4671,VALID,102,VALID,0.259375,
2009-10-06, 00:17:04,VALID,1000.21,VALID,0,VALID,89.9303,VALID,0,VALID,23.4475,VALID,102,VALID,0.262109,
2009-10-06, 00:18:04,VALID,1000.21,VALID,0,VALID,89.938,VALID,0,VALID,23.4475,VALID,102,VALID,0.262109,
2009-10-06, 00:19:04,VALID,1000.18,VALID,0,VALID,90.0448,VALID,0,VALID,23.4688,VALID,102,VALID,0.0199219,
2009-10-06, 00:20:04,VALID,1000.16,VALID,0,VALID,90.0066,VALID,0,VALID,23.428,VALID,104,VALID,0.281641,
2009-10-06, 00:21:04,VALID,1000.15,VALID,0,VALID,90.0677,VALID,0,VALID,23.428,VALID,123,VALID,0.583203,
2009-10-06, 00:22:04,VALID,1000.14,VALID,0,VALID,89.9685,VALID,0,VALID,23.4688,VALID,122,VALID,0.603516,
2009-10-06, 00:23:04,VALID,1000.09,VALID,0,VALID,89.7243,VALID,0,VALID,23.5079,VALID,145,VALID,0.611719,
2009-10-06, 00:24:04,VALID,1000.07,VALID,0,VALID,89.2208,VALID,0,VALID,23.5079,VALID,157,VALID,0.571484,
2009-10-06, 00:25:04,VALID,1000.05,VALID,0,VALID,89.1826,VALID,0,VALID,23.5274,VALID,153,VALID,1.11484,
2009-10-06, 00:26:04,VALID,1000.07,VALID,0,VALID,88.6867,VALID,0,VALID,23.6054,VALID,154,VALID,0.821484,
2009-10-06, 00:27:04,VALID,1000.07,VALID,0,VALID,88.4197,VALID,0,VALID,23.7207,VALID,168,VALID,0.992188,
2009-10-06, 00:28:04,VALID,1000.08,VALID,0,VALID,87.8474,VALID,0,VALID,23.8183,VALID,168,VALID,0.882813,
2009-10-06, 00:29:04,VALID,1000.07,VALID,0,VALID,87.3363,VALID,0,VALID,23.8963,VALID,167,VALID,1.325,
2009-10-06, 00:30:04,VALID,1000.07,VALID,0,VALID,86.1766,VALID,0,VALID,23.9939,VALID,167,VALID,1.16992,
2009-10-06, 00:31:04,VALID,1000.08,VALID,0,VALID,85.6196,VALID,0,VALID,24.15,VALID,167,VALID,1.08047,
2009-10-06, 00:32:04,VALID,1000.08,VALID,0,VALID,84.9329,VALID,0,VALID,24.2671,VALID,166,VALID,0.989062,
2009-10-06, 00:33:04,VALID,1000.09,VALID,0,VALID,84.1929,VALID,0,VALID,24.3666,VALID,166,VALID,1.03125,
2009-10-06, 00:34:04,VALID,1000.06,VALID,0,VALID,83.9258,VALID,0,VALID,24.4446,VALID,166,VALID,1.07148,
2009-10-06, 00:35:04,VALID,1000.06,VALID,0,VALID,83.468,VALID,0,VALID,24.4837,VALID,162,VALID,1.1082,
2009-10-06, 00:36:04,VALID,1000.09,VALID,0,VALID,83.2773,VALID,0,VALID,24.4818,VALID,153,VALID,0.86875,
2009-10-06, 00:37:04,VALID,1000.07,VALID,0,VALID,83.6206,VALID,0,VALID,24.4818,VALID,134,VALID,0.882031,
2009-10-06, 00:38:04,VALID,1000.07,VALID,0,VALID,83.7885,VALID,0,VALID,24.4233,VALID,144,VALID,1.01133,
2009-10-06, 00:39:04,VALID,1000.06,VALID,0,VALID,84.0632,VALID,0,VALID,24.3647,VALID,152,VALID,0.943359,
2009-10-06, 00:40:04,VALID,1000.05,VALID,0,VALID,84.2157,VALID,0,VALID,24.2866,VALID,152,VALID,0.83125,
2009-10-06, 00:41:04,VALID,1000.03,VALID,0,VALID,84.1623,VALID,0,VALID,24.1891,VALID,145,VALID,0.524609,
2009-10-06, 00:42:04,VALID,999.988,VALID,0,VALID,84.6964,VALID,0,VALID,24.0525,VALID,134,VALID,0.618359,
2009-10-06, 00:43:04,VALID,999.99,VALID,0,VALID,85.1466,VALID,0,VALID,23.9549,VALID,134,VALID,0.582812,
2009-10-06, 00:44:04,VALID,999.96,VALID,0,VALID,85.7798,VALID,0,VALID,23.8768,VALID,134,VALID,0.419922,
2009-10-06, 00:45:04,VALID,1000.02,VALID,0,VALID,86.1232,VALID,0,VALID,23.8378,VALID,134,VALID,0.368359,
2009-10-06, 00:46:04,VALID,999.949,VALID,0,VALID,86.497,VALID,0,VALID,23.8201,VALID,134,VALID,0.320313,
2009-10-06, 00:47:04,VALID,999.968,VALID,0,VALID,86.558,VALID,0,VALID,23.7597,VALID,134,VALID,0.221484,
2009-10-06, 00:48:04,VALID,999.927,VALID,0,VALID,86.8403,VALID,0,VALID,23.7207,VALID,134,VALID,0.071875,
2009-10-06, 00:49:04,VALID,999.934,VALID,0,VALID,87.0845,VALID,0,VALID,23.6817,VALID,134,VALID,0.117969,
2009-10-06, 00:50:04,VALID,999.926,VALID,0,VALID,87.1989,VALID,0,VALID,23.6817,VALID,134,VALID,0.209375,
2009-10-06, 00:51:04,VALID,999.9,VALID,0,VALID,87.3515,VALID,0,VALID,23.6427,VALID,134,VALID,0.212109,
2009-10-06, 00:52:04,VALID,999.903,VALID,0,VALID,87.2752,VALID,0,VALID,23.6232,VALID,134,VALID,0.0359375,
2009-10-06, 00:53:04,VALID,999.886,VALID,0,VALID,87.2142,VALID,0,VALID,23.5859,VALID,134,VALID,0,
2009-10-06, 00:54:04,VALID,999.897,VALID,0,VALID,87.4126,VALID,0,VALID,23.4884,VALID,134,VALID,0,
2009-10-06, 00:55:04,VALID,999.897,VALID,0,VALID,87.5575,VALID,0,VALID,23.428,VALID,134,VALID,0,
2009-10-06, 00:56:04,VALID,999.872,VALID,0,VALID,87.5957,VALID,0,VALID,23.3713,VALID,130,VALID,0.392969,
2009-10-06, 00:57:04,VALID,999.875,VALID,0,VALID,87.8169,VALID,0,VALID,23.2719,VALID,129,VALID,0.408984,
2009-10-06, 00:58:04,VALID,999.889,VALID,0,VALID,88.1908,VALID,0,VALID,23.2134,VALID,129,VALID,0.360156,
2009-10-06, 00:59:04,VALID,999.885,VALID,0,VALID,88.3968,VALID,0,VALID,23.1354,VALID,88,VALID,0.496094,
2009-10-06, 01:00:04,VALID,999.902,VALID,0,VALID,88.9385,VALID,0,VALID,23.1176,VALID,32,VALID,0.640234,
2009-10-06, 01:01:04,VALID,999.846,VALID,0,VALID,89.3886,VALID,0,VALID,23.0964,VALID,32,VALID,0.455078,
2009-10-06, 01:02:04,VALID,999.836,VALID,0,VALID,89.1597,VALID,0,VALID,23.0573,VALID,32,VALID,0.532031,
2009-10-06, 01:03:04,VALID,999.847,VALID,0,VALID,89.6709,VALID,0,VALID,22.9988,VALID,32,VALID,0.454688,
2009-10-06, 01:04:04,VALID,999.827,VALID,0,VALID,89.8311,VALID,0,VALID,22.9793,VALID,32,VALID,0.226172,
2009-10-06, 01:05:04,VALID,999.821,VALID,0,VALID,89.9532,VALID,0,VALID,22.9615,VALID,32,VALID,0.298047,
2009-10-06, 01:06:04,VALID,999.817,VALID,0,VALID,89.9914,VALID,0,VALID,22.9208,VALID,32,VALID,0.146875,
2009-10-06, 01:07:04,VALID,999.799,VALID,0,VALID,90.0371,VALID,0,VALID,22.8623,VALID,32,VALID,0.122266,
2009-10-06, 01:08:04,VALID,999.787,VALID,0,VALID,90.0753,VALID,0,VALID,22.864,VALID,32,VALID,0.0015625,
2009-10-06, 01:09:04,VALID,999.764,VALID,0,VALID,90.2355,VALID,0,VALID,22.8037,VALID,32,VALID,0.291016,
2009-10-06, 01:10:04,VALID,999.79,VALID,0,VALID,90.5865,VALID,0,VALID,22.7842,VALID,32,VALID,0.200781,
2009-10-06, 01:11:04,VALID,999.792,VALID,0,VALID,90.6628,VALID,0,VALID,22.7842,VALID,43,VALID,0.539453,
2009-10-06, 01:12:04,VALID,999.785,VALID,0,VALID,91.0671,VALID,0,VALID,22.8037,VALID,81,VALID,0.397656,
2009-10-06, 01:13:04,VALID,999.805,VALID,0,VALID,91.2274,VALID,0,VALID,22.864,VALID,133,VALID,0.763672,
2009-10-06, 01:14:04,VALID,999.787,VALID,0,VALID,91.0748,VALID,0,VALID,22.9013,VALID,137,VALID,0.791406,
2009-10-06, 01:15:04,VALID,999.807,VALID,0,VALID,90.9374,VALID,0,VALID,22.9598,VALID,137,VALID,0.743359,
2009-10-06, 01:16:04,VALID,999.775,VALID,0,VALID,90.8535,VALID,0,VALID,23.0378,VALID,137,VALID,0.846094,
2009-10-06, 01:17:04,VALID,999.784,VALID,0,VALID,90.5407,VALID,0,VALID,23.0769,VALID,135,VALID,0.668359,
2009-10-06, 01:18:04,VALID,999.761,VALID,0,VALID,90.205,VALID,0,VALID,23.1159,VALID,135,VALID,0.470313,
2009-10-06, 01:19:04,VALID,999.736,VALID,0,VALID,90.0066,VALID,0,VALID,23.1549,VALID,135,VALID,0.287109,
2009-10-06, 01:20:04,VALID,999.763,VALID,0,VALID,89.9151,VALID,0,VALID,23.1744,VALID,135,VALID,0.406641,
2009-10-06, 01:21:04,VALID,999.753,VALID,0,VALID,89.8846,VALID,0,VALID,23.1939,VALID,135,VALID,0.525781,
2009-10-06, 01:22:04,VALID,999.762,VALID,0,VALID,90.0677,VALID,0,VALID,23.2134,VALID,135,VALID,0.585156,
2009-10-06, 01:23:04,VALID,999.765,VALID,0,VALID,89.9151,VALID,0,VALID,23.2524,VALID,135,VALID,0.63125,
2009-10-06, 01:24:04,VALID,999.754,VALID,0,VALID,89.4573,VALID,0,VALID,23.2719,VALID,134,VALID,0.424609,
2009-10-06, 01:25:04,VALID,999.735,VALID,0,VALID,89.1368,VALID,0,VALID,23.311,VALID,125,VALID,0.595703,
2009-10-06, 01:26:04,VALID,999.739,VALID,0,VALID,88.7859,VALID,0,VALID,23.2915,VALID,111,VALID,0.560156,
2009-10-06, 01:27:04,VALID,999.731,VALID,0,VALID,88.3815,VALID,0,VALID,23.2719,VALID,110,VALID,0.623438,
2009-10-06, 01:28:04,VALID,999.748,VALID,0,VALID,88.1679,VALID,0,VALID,23.1939,VALID,110,VALID,0.477344,
2009-10-06, 01:29:04,VALID,999.749,VALID,0,VALID,88.2289,VALID,0,VALID,23.1159,VALID,110,VALID,0,
2009-10-06, 01:30:04,VALID,999.743,VALID,0,VALID,88.3205,VALID,0,VALID,23.0769,VALID,110,VALID,0.112109,
2009-10-06, 01:31:04,VALID,999.713,VALID,0,VALID,88.7477,VALID,0,VALID,22.9988,VALID,1,VALID,0.838672,
2009-10-06, 01:32:04,VALID,999.706,VALID,0,VALID,89.0071,VALID,0,VALID,22.9403,VALID,2,VALID,1.16133,
2009-10-06, 01:33:04,VALID,999.692,VALID,0,VALID,89.5107,VALID,0,VALID,22.8835,VALID,2,VALID,1.14609,
2009-10-06, 01:34:04,VALID,999.702,VALID,0,VALID,89.9227,VALID,0,VALID,22.8232,VALID,11,VALID,1.15156,
2009-10-06, 01:35:04,VALID,999.67,VALID,0,VALID,90.0448,VALID,0,VALID,22.7647,VALID,11,VALID,0.935938,
2009-10-06, 01:36:04,VALID,999.698,VALID,0,VALID,89.9609,VALID,0,VALID,22.6672,VALID,360,VALID,0.723828,
2009-10-06, 01:37:04,VALID,999.704,VALID,0,VALID,90.35,VALID,0,VALID,22.6087,VALID,343,VALID,0.767969,
2009-10-06, 01:38:04,VALID,999.698,VALID,0,VALID,91.2121,VALID,0,VALID,22.6477,VALID,331,VALID,0.879687,
2009-10-06, 01:39:04,VALID,999.711,VALID,0,VALID,91.3418,VALID,0,VALID,22.6477,VALID,331,VALID,0.646484,
2009-10-06, 01:40:04,VALID,999.728,VALID,0,VALID,91.5326,VALID,0,VALID,22.6672,VALID,331,VALID,0.592969,
2009-10-06, 01:41:04,VALID,999.738,VALID,0,VALID,91.6699,VALID,0,VALID,22.6867,VALID,331,VALID,0.554297,
2009-10-06, 01:42:04,VALID,999.721,VALID,0,VALID,91.6088,VALID,0,VALID,22.6867,VALID,331,VALID,0.295312,
2009-10-06, 01:43:04,VALID,999.694,VALID,0,VALID,91.6623,VALID,0,VALID,22.6672,VALID,331,VALID,0.353516,
2009-10-06, 01:44:04,VALID,999.715,VALID,0,VALID,91.8683,VALID,0,VALID,22.7062,VALID,331,VALID,0.282422,
2009-10-06, 01:45:04,VALID,999.668,VALID,0,VALID,92.0285,VALID,0,VALID,22.7469,VALID,331,VALID,0.157422,
2009-10-06, 01:46:04,VALID,999.647,VALID,0,VALID,92.1124,VALID,0,VALID,22.7647,VALID,331,VALID,0.0753906,
2009-10-06, 01:47:04,VALID,999.659,VALID,0,VALID,91.4715,VALID,0,VALID,22.7452,VALID,25,VALID,0.636719,
2009-10-06, 01:48:04,VALID,999.669,VALID,0,VALID,91.5478,VALID,0,VALID,22.7079,VALID,70,VALID,0.307813,
2009-10-06, 01:49:04,VALID,999.67,VALID,0,VALID,91.6241,VALID,0,VALID,22.6672,VALID,70,VALID,0.207031,
2009-10-06, 01:50:04,VALID,999.665,VALID,0,VALID,91.5249,VALID,0,VALID,22.6494,VALID,70,VALID,0.230078,
2009-10-06, 01:51:04,VALID,999.66,VALID,0,VALID,91.4257,VALID,0,VALID,22.5892,VALID,70,VALID,0.178906,
2009-10-06, 01:52:04,VALID,999.658,VALID,0,VALID,91.3494,VALID,0,VALID,22.5714,VALID,121,VALID,0.714063,
2009-10-06, 01:53:04,VALID,999.671,VALID,0,VALID,91.2045,VALID,0,VALID,22.4933,VALID,121,VALID,0.366406,
2009-10-06, 01:54:04,VALID,999.687,VALID,0,VALID,91.235,VALID,0,VALID,22.4348,VALID,120,VALID,0.536328,
2009-10-06, 01:55:04,VALID,999.649,VALID,0,VALID,91.5478,VALID,0,VALID,22.4153,VALID,93,VALID,1.04336,
2009-10-06, 01:56:04,VALID,999.677,VALID,0,VALID,91.8148,VALID,0,VALID,22.4136,VALID,71,VALID,1.30977,
2009-10-06, 01:57:04,VALID,999.709,VALID,0,VALID,91.586,VALID,0,VALID,22.4136,VALID,57,VALID,1.17813,
2009-10-06, 01:58:04,VALID,999.719,VALID,0,VALID,91.6546,VALID,0,VALID,22.4136,VALID,47,VALID,1.07656,
2009-10-06, 01:59:04,VALID,999.698,VALID,0,VALID,91.3418,VALID,0,VALID,22.4153,VALID,47,VALID,0.701563,
2009-10-06, 02:00:04,VALID,999.716,VALID,0,VALID,91.09,VALID,0,VALID,22.3356,VALID,44,VALID,0.5,
2009-10-06, 02:01:04,VALID,999.674,VALID,0,VALID,91.0671,VALID,0,VALID,22.2576,VALID,14,VALID,0.780078,
2009-10-06, 02:02:04,VALID,999.687,VALID,0,VALID,91.235,VALID,0,VALID,22.2186,VALID,14,VALID,0.896484,
2009-10-06, 02:03:04,VALID,999.669,VALID,0,VALID,91.3723,VALID,0,VALID,22.2186,VALID,5,VALID,0.653125,
2009-10-06, 02:04:04,VALID,999.66,VALID,0,VALID,91.3494,VALID,0,VALID,22.16,VALID,5,VALID,0.572656,
2009-10-06, 02:05:04,VALID,999.649,VALID,0,VALID,91.3876,VALID,0,VALID,22.1405,VALID,5,VALID,0.498047,
2009-10-06, 02:06:04,VALID,999.658,VALID,0,VALID,91.4639,VALID,0,VALID,22.121,VALID,5,VALID,0.553125,
2009-10-06, 02:07:04,VALID,999.641,VALID,0,VALID,91.502,VALID,0,VALID,22.1015,VALID,5,VALID,0.543359,
2009-10-06, 02:08:04,VALID,999.654,VALID,0,VALID,91.4715,VALID,0,VALID,22.0625,VALID,5,VALID,0.274219,
2009-10-06, 02:09:04,VALID,999.66,VALID,0,VALID,91.7233,VALID,0,VALID,22.0625,VALID,1,VALID,0.433203,
2009-10-06, 02:10:04,VALID,999.638,VALID,0,VALID,91.8911,VALID,0,VALID,22.0625,VALID,356,VALID,0.553906,
2009-10-06, 02:11:04,VALID,999.635,VALID,0,VALID,92.059,VALID,0,VALID,22.082,VALID,356,VALID,0.584375,
2009-10-06, 02:12:04,VALID,999.606,VALID,0,VALID,92.1811,VALID,0,VALID,22.0998,VALID,356,VALID,0.539453,
2009-10-06, 02:13:04,VALID,999.609,VALID,0,VALID,92.3031,VALID,0,VALID,22.1405,VALID,356,VALID,0.542969,
2009-10-06, 02:14:04,VALID,999.619,VALID,0,VALID,92.3947,VALID,0,VALID,22.1795,VALID,356,VALID,0.523047,
2009-10-06, 02:15:04,VALID,999.587,VALID,0,VALID,92.3413,VALID,0,VALID,22.2186,VALID,356,VALID,0.510938,
2009-10-06, 02:16:04,VALID,999.585,VALID,0,VALID,92.4252,VALID,0,VALID,22.2186,VALID,356,VALID,0.514063,
2009-10-06, 02:17:04,VALID,999.598,VALID,0,VALID,92.41,VALID,0,VALID,22.2381,VALID,356,VALID,0.568359,
2009-10-06, 02:18:04,VALID,999.622,VALID,0,VALID,92.41,VALID,0,VALID,22.2381,VALID,356,VALID,0.561719,
2009-10-06, 02:19:04,VALID,999.625,VALID,0,VALID,92.3337,VALID,0,VALID,22.2381,VALID,356,VALID,0.54375,
2009-10-06, 02:20:04,VALID,999.643,VALID,0,VALID,92.265,VALID,0,VALID,22.2186,VALID,356,VALID,0.409766,
2009-10-06, 02:21:04,VALID,999.635,VALID,0,VALID,92.12,VALID,0,VALID,22.1795,VALID,356,VALID,0.333203,
2009-10-06, 02:22:04,VALID,999.656,VALID,0,VALID,92.2345,VALID,0,VALID,22.1389,VALID,356,VALID,0.362109,
2009-10-06, 02:23:04,VALID,999.635,VALID,0,VALID,92.3642,VALID,0,VALID,22.16,VALID,356,VALID,0.533594,
2009-10-06, 02:24:04,VALID,999.61,VALID,0,VALID,92.3566,VALID,0,VALID,22.1795,VALID,356,VALID,0.637891,
2009-10-06, 02:25:04,VALID,999.626,VALID,0,VALID,92.4023,VALID,0,VALID,22.16,VALID,13,VALID,0.593359,
2009-10-06, 02:26:04,VALID,999.648,VALID,0,VALID,92.4252,VALID,0,VALID,22.1795,VALID,13,VALID,0.573438,
2009-10-06, 02:27:04,VALID,999.637,VALID,0,VALID,92.41,VALID,0,VALID,22.1795,VALID,13,VALID,0.528906,
2009-10-06, 02:28:04,VALID,999.646,VALID,0,VALID,92.4176,VALID,0,VALID,22.1795,VALID,13,VALID,0.505078,
2009-10-06, 02:29:04,VALID,999.662,VALID,0,VALID,92.3871,VALID,0,VALID,22.199,VALID,13,VALID,0.45,
2009-10-06, 02:30:04,VALID,999.656,VALID,0,VALID,92.3794,VALID,0,VALID,22.1795,VALID,13,VALID,0.547266,
2009-10-06, 02:31:04,VALID,999.685,VALID,0,VALID,92.3718,VALID,0,VALID,22.1389,VALID,13,VALID,0.615234,
2009-10-06, 02:32:04,VALID,999.68,VALID,0,VALID,92.3566,VALID,0,VALID,22.16,VALID,20,VALID,0.725781,
2009-10-06, 02:33:04,VALID,999.674,VALID,0,VALID,92.3184,VALID,0,VALID,22.1617,VALID,44,VALID,0.939062,
2009-10-06, 02:34:04,VALID,999.654,VALID,0,VALID,92.41,VALID,0,VALID,22.1405,VALID,58,VALID,1.03242,
2009-10-06, 02:35:04,VALID,999.661,VALID,0,VALID,92.3337,VALID,0,VALID,22.1405,VALID,58,VALID,1.04336,
2009-10-06, 02:36:04,VALID,999.682,VALID,0,VALID,92.0895,VALID,0,VALID,22.0413,VALID,57,VALID,1.09414,
2009-10-06, 02:37:04,VALID,999.715,VALID,0,VALID,92.1048,VALID,0,VALID,22.004,VALID,57,VALID,1,
2009-10-06, 02:38:04,VALID,999.748,VALID,0,VALID,92.1277,VALID,0,VALID,21.9845,VALID,54,VALID,1.12578,
2009-10-06, 02:39:04,VALID,999.709,VALID,0,VALID,92.1963,VALID,0,VALID,21.9455,VALID,53,VALID,0.924609,
2009-10-06, 02:40:04,VALID,999.762,VALID,0,VALID,92.0895,VALID,0,VALID,21.9065,VALID,42,VALID,0.723828,
2009-10-06, 02:41:04,VALID,999.754,VALID,0,VALID,92.0437,VALID,0,VALID,21.848,VALID,13,VALID,0.698438,
2009-10-06, 02:42:04,VALID,999.779,VALID,0,VALID,92.2879,VALID,0,VALID,21.8285,VALID,4,VALID,1.14023,
2009-10-06, 02:43:04,VALID,999.783,VALID,0,VALID,92.4176,VALID,0,VALID,21.8285,VALID,358,VALID,1.01445,
2009-10-06, 02:44:04,VALID,999.791,VALID,0,VALID,92.6541,VALID,0,VALID,21.848,VALID,359,VALID,0.978516,
2009-10-06, 02:45:04,VALID,999.763,VALID,0,VALID,92.6236,VALID,0,VALID,21.8675,VALID,359,VALID,0.821094,
2009-10-06, 02:46:04,VALID,999.762,VALID,0,VALID,92.6541,VALID,0,VALID,21.8675,VALID,24,VALID,1.06797,
2009-10-06, 02:47:04,VALID,999.762,VALID,0,VALID,92.6083,VALID,0,VALID,21.8887,VALID,26,VALID,0.959766,
2009-10-06, 02:48:04,VALID,999.724,VALID,0,VALID,92.4405,VALID,0,VALID,21.8692,VALID,44,VALID,0.921094,
2009-10-06, 02:49:04,VALID,999.767,VALID,0,VALID,92.3566,VALID,0,VALID,21.8285,VALID,59,VALID,0.817187,
2009-10-06, 02:50:04,VALID,999.747,VALID,0,VALID,92.4481,VALID,0,VALID,21.809,VALID,68,VALID,1.10547,
2009-10-06, 02:51:04,VALID,999.768,VALID,0,VALID,92.6999,VALID,0,VALID,21.8285,VALID,67,VALID,1.21758,
2009-10-06, 02:52:04,VALID,999.767,VALID,0,VALID,92.8677,VALID,0,VALID,21.8675,VALID,64,VALID,1.31211,
2009-10-06, 02:53:04,VALID,999.775,VALID,0,VALID,92.8983,VALID,0,VALID,21.926,VALID,67,VALID,0.985937,
2009-10-06, 02:54:04,VALID,999.776,VALID,0,VALID,92.7457,VALID,0,VALID,21.9277,VALID,64,VALID,1.10859,
2009-10-06, 02:55:04,VALID,999.772,VALID,0,VALID,92.6923,VALID,0,VALID,21.926,VALID,61,VALID,1.01211,
2009-10-06, 02:56:04,VALID,999.801,VALID,0,VALID,92.7151,VALID,0,VALID,21.9065,VALID,61,VALID,0.685156,
2009-10-06, 02:57:04,VALID,999.796,VALID,0,VALID,92.6541,VALID,0,VALID,21.9065,VALID,61,VALID,0.461328,
2009-10-06, 02:58:04,VALID,999.786,VALID,0,VALID,92.6465,VALID,0,VALID,21.9065,VALID,60,VALID,0.624219,
2009-10-06, 02:59:04,VALID,999.802,VALID,0,VALID,92.6465,VALID,0,VALID,21.9065,VALID,47,VALID,0.905469,
2009-10-06, 03:00:04,VALID,999.765,VALID,0,VALID,92.6312,VALID,0,VALID,21.8887,VALID,47,VALID,0.8375,
2009-10-06, 03:01:04,VALID,999.741,VALID,0,VALID,92.677,VALID,0,VALID,21.887,VALID,47,VALID,0.792188,
2009-10-06, 03:02:04,VALID,999.787,VALID,0,VALID,92.5854,VALID,0,VALID,21.8675,VALID,47,VALID,0.518359,
2009-10-06, 03:03:04,VALID,999.773,VALID,0,VALID,92.5015,VALID,0,VALID,21.8285,VALID,47,VALID,0.213281,
2009-10-06, 03:04:04,VALID,999.765,VALID,0,VALID,92.5702,VALID,0,VALID,21.809,VALID,44,VALID,0.406641,
2009-10-06, 03:05:04,VALID,999.754,VALID,0,VALID,92.7228,VALID,0,VALID,21.8285,VALID,346,VALID,0.541016,
2009-10-06, 03:06:04,VALID,999.704,VALID,0,VALID,92.8372,VALID,0,VALID,21.8692,VALID,346,VALID,0.641406,
2009-10-06, 03:07:04,VALID,999.717,VALID,0,VALID,92.8296,VALID,0,VALID,21.8675,VALID,3,VALID,0.7375,
2009-10-06, 03:08:04,VALID,999.72,VALID,0,VALID,92.8448,VALID,0,VALID,21.8675,VALID,4,VALID,0.521484,
2009-10-06, 03:09:04,VALID,999.705,VALID,0,VALID,92.7533,VALID,0,VALID,21.848,VALID,4,VALID,0.386719,
2009-10-06, 03:10:04,VALID,999.69,VALID,0,VALID,92.6465,VALID,0,VALID,21.8285,VALID,4,VALID,0.269922,
2009-10-06, 03:11:04,VALID,999.683,VALID,0,VALID,92.6465,VALID,0,VALID,21.809,VALID,4,VALID,0.198047,
2009-10-06, 03:12:04,VALID,999.688,VALID,0,VALID,92.6541,VALID,0,VALID,21.7895,VALID,4,VALID,0.103906,
2009-10-06, 03:13:04,VALID,999.702,VALID,0,VALID,92.6465,VALID,0,VALID,21.77,VALID,4,VALID,0,
2009-10-06, 03:14:04,VALID,999.705,VALID,0,VALID,92.6312,VALID,0,VALID,21.7716,VALID,4,VALID,0.323828,
2009-10-06, 03:15:04,VALID,999.694,VALID,0,VALID,92.6007,VALID,0,VALID,21.7115,VALID,4,VALID,0.421094,
2009-10-06, 03:16:04,VALID,999.681,VALID,0,VALID,92.6007,VALID,0,VALID,21.692,VALID,4,VALID,0.457422,
2009-10-06, 03:17:04,VALID,999.681,VALID,0,VALID,92.7228,VALID,0,VALID,21.6725,VALID,4,VALID,0.369141,
2009-10-06, 03:18:04,VALID,999.68,VALID,0,VALID,92.9364,VALID,0,VALID,21.692,VALID,4,VALID,0.448438,
2009-10-06, 03:19:04,VALID,999.696,VALID,0,VALID,93.1043,VALID,0,VALID,21.7505,VALID,82,VALID,0.707422,
2009-10-06, 03:20:04,VALID,999.678,VALID,0,VALID,93.089,VALID,0,VALID,21.8106,VALID,92,VALID,0.972266,
2009-10-06, 03:21:04,VALID,999.698,VALID,0,VALID,93.0127,VALID,0,VALID,21.7895,VALID,102,VALID,1.10859,
2009-10-06, 03:22:04,VALID,999.705,VALID,0,VALID,93.0432,VALID,0,VALID,21.809,VALID,105,VALID,0.842969,
2009-10-06, 03:23:04,VALID,999.712,VALID,0,VALID,93.1348,VALID,0,VALID,21.8285,VALID,109,VALID,0.505078,
2009-10-06, 03:24:04,VALID,999.674,VALID,0,VALID,93.1043,VALID,0,VALID,21.8285,VALID,109,VALID,0.479297,
2009-10-06, 03:25:04,VALID,999.712,VALID,0,VALID,93.1271,VALID,0,VALID,21.8887,VALID,110,VALID,0.241406,
2009-10-06, 03:26:04,VALID,999.684,VALID,0,VALID,93.1043,VALID,0,VALID,21.8887,VALID,110,VALID,0.0726563,
2009-10-06, 03:27:04,VALID,999.707,VALID,0,VALID,93.0356,VALID,0,VALID,21.8675,VALID,110,VALID,0.339844,
2009-10-06, 03:28:04,VALID,999.714,VALID,0,VALID,93.0051,VALID,0,VALID,21.8675,VALID,20,VALID,0.60625,
2009-10-06, 03:29:04,VALID,999.697,VALID,0,VALID,92.9135,VALID,0,VALID,21.8285,VALID,4,VALID,0.706641,
2009-10-06, 03:30:04,VALID,999.695,VALID,0,VALID,92.944,VALID,0,VALID,21.8285,VALID,4,VALID,0.706641,
2009-10-06, 03:31:04,VALID,999.649,VALID,0,VALID,92.9593,VALID,0,VALID,21.809,VALID,4,VALID,0.749219,
2009-10-06, 03:32:04,VALID,999.679,VALID,0,VALID,92.9974,VALID,0,VALID,21.8285,VALID,7,VALID,0.759375,
2009-10-06, 03:33:04,VALID,999.653,VALID,0,VALID,92.7838,VALID,0,VALID,21.7911,VALID,21,VALID,1.15352,
2009-10-06, 03:34:04,VALID,999.643,VALID,0,VALID,92.6541,VALID,0,VALID,21.7115,VALID,21,VALID,1.09922,
2009-10-06, 03:35:04,VALID,999.637,VALID,0,VALID,92.6617,VALID,0,VALID,21.6725,VALID,24,VALID,1.02344,
2009-10-06, 03:36:04,VALID,999.653,VALID,0,VALID,92.7685,VALID,0,VALID,21.6546,VALID,29,VALID,0.996875,
2009-10-06, 03:37:04,VALID,999.652,VALID,0,VALID,92.8448,VALID,0,VALID,21.6546,VALID,35,VALID,0.845312,
2009-10-06, 03:38:04,VALID,999.656,VALID,0,VALID,92.8296,VALID,0,VALID,21.614,VALID,38,VALID,0.882422,
2009-10-06, 03:39:04,VALID,999.652,VALID,0,VALID,93.0203,VALID,0,VALID,21.6335,VALID,40,VALID,0.803906,
2009-10-06, 03:40:04,VALID,999.624,VALID,0,VALID,93.0127,VALID,0,VALID,21.6335,VALID,46,VALID,0.725391,
2009-10-06, 03:41:04,VALID,999.632,VALID,0,VALID,93.0127,VALID,0,VALID,21.6335,VALID,46,VALID,0.554688,
2009-10-06, 03:42:04,VALID,999.634,VALID,0,VALID,92.9364,VALID,0,VALID,21.6335,VALID,46,VALID,0.242578,
2009-10-06, 03:43:04,VALID,999.645,VALID,0,VALID,92.8983,VALID,0,VALID,21.5945,VALID,46,VALID,0.134766,
2009-10-06, 03:44:04,VALID,999.645,VALID,0,VALID,92.8906,VALID,0,VALID,21.5945,VALID,46,VALID,0.383594,
2009-10-06, 03:45:04,VALID,999.671,VALID,0,VALID,92.9593,VALID,0,VALID,21.5945,VALID,45,VALID,0.416016,
2009-10-06, 03:46:04,VALID,999.671,VALID,0,VALID,93.0737,VALID,0,VALID,21.614,VALID,34,VALID,0.567187,